New Philadelphia, OH

9:09 AM EDT on August 18, 2017 (GMT -0400)
Clever

Weather History for KPHD - July, 2014

Change the Weather History Date:

Thursday, July 17, 2014

  Actual Average Record
Temperature  
Mean Temperature 64 °F 73 °F  
Max Temperature 76 °F 84 °F 102 °F (1988)
Min Temperature 52 °F 62 °F 49 °F (1974)
Degree Days  
Heating Degree Days 1 0  
Month to date heating degree days 7 0  
Since 1 June heating degree days 17 35  
Since 1 July heating degree days 7 0  
Cooling Degree Days 0 8  
Month to date cooling degree days 100 127  
Year to date cooling degree days 343 313  
Since 1 June cooling degree days 277 270  
Growing Degree Days 14 (Base 50)    
Moisture  
Dew Point 54 °F    
Average Humidity 73    
Maximum Humidity 100    
Minimum Humidity 46    
Precipitation  
Precipitation 0.00 in 0.14 in 1.94 in (1963)
Month to date precipitation 2.63 2.03  
Year to date precipitation 22.68 21.36  
Sea Level Pressure  
Sea Level Pressure 30.09 in    
Wind  
Wind Speed 2 mph (NNW)    
Max Wind Speed 9 mph    
Max Gust Speed 13 mph    
Visibility 9 miles    
Events      
T = Trace of Precipitation, MM = Missing Value Source: NWS Daily Summary

Daily Weather History Graph

Daily Weather History Graph

Search for Another Location

Airport or City:

Trip Planner

Search our weather history database for the weather conditions in past years. The results will help you decide how hot, cold, wet, or windy it might be!

Date:

Astronomy

Jul. 17, 2014 Rise Set
Actual Time 6:09 AM EDT 8:53 PM EDT
Civil Twilight 5:37 AM EDT 9:25 PM EDT
Nautical Twilight 4:57 AM EDT 10:05 PM EDT
Astronomical Twilight 4:11 AM EDT 10:51 PM EDT
Moon No Moon Rise 12:21 PM EDT (7/17)
Length of Visible Light 15h 47m
Length of Day
14h 43m
Waning Gibbous, 66% of the Moon is Illuminated
Jul 17
Waning Gibbous
Jul 18
Last Quarter
Jul 26
New
Aug 3
First Quarter
Aug 10
Full

Hourly Weather History & Observations

Time (EDT) Temp. Dew Point Humidity Pressure Visibility Wind Dir Wind Speed Gust Speed Precip Events Conditions
12:53 AM 54.0 °F 52.0 °F 93% 30.04 in 10.0 mi Calm Calm - N/A   Clear
1:53 AM 52.0 °F 51.1 °F 97% 30.04 in 10.0 mi Calm Calm - N/A   Clear
2:53 AM 52.0 °F 50.0 °F 93% 30.04 in 9.0 mi Calm Calm - N/A   Clear
3:53 AM 53.1 °F 51.1 °F 93% 30.04 in 10.0 mi Calm Calm - N/A   Overcast
4:11 AM 53.1 °F 51.1 °F 93% 30.05 in 9.0 mi Calm Calm - N/A   Overcast
4:19 AM 52.0 °F 51.1 °F 97% 30.05 in 8.0 mi Calm Calm - N/A   Overcast
4:34 AM 52.0 °F 51.1 °F 97% 30.05 in 10.0 mi Calm Calm - N/A   Mostly Cloudy
4:53 AM 53.1 °F 52.0 °F 96% 30.05 in 9.0 mi Calm Calm - N/A   Overcast
5:00 AM 53.1 °F 52.0 °F 96% 30.05 in 5.0 mi Calm Calm - N/A   Overcast
5:15 AM 53.1 °F 53.1 °F 100% 30.06 in 1.8 mi Calm Calm - N/A   Overcast
5:30 AM 53.1 °F 53.1 °F 100% 30.06 in 3.0 mi Calm Calm - N/A   Overcast
5:53 AM 53.1 °F 53.1 °F 100% 30.07 in 6.0 mi Calm Calm - N/A   Overcast
6:10 AM 54.0 °F 53.1 °F 97% 30.07 in 7.0 mi Calm Calm - N/A   Overcast
6:53 AM 55.0 °F 54.0 °F 96% 30.08 in 7.0 mi Calm Calm - N/A   Overcast
7:53 AM 55.9 °F 54.0 °F 93% 30.10 in 10.0 mi Calm Calm - N/A   Overcast
8:53 AM 62.1 °F 55.9 °F 80% 30.11 in 10.0 mi Calm Calm - N/A   Scattered Clouds
9:53 AM 66.0 °F 55.0 °F 68% 30.12 in 10.0 mi Calm Calm - N/A   Clear
10:53 AM 68.0 °F 55.0 °F 63% 30.12 in 10.0 mi NW 5.8 mph - N/A   Clear
11:53 AM 66.9 °F 54.0 °F 63% 30.12 in 10.0 mi Variable 5.8 mph - N/A   Overcast
12:53 PM 71.1 °F 54.0 °F 55% 30.11 in 10.0 mi West 5.8 mph - N/A   Partly Cloudy
1:53 PM 73.0 °F 54.0 °F 51% 30.10 in 10.0 mi Variable 4.6 mph - N/A   Mostly Cloudy
2:53 PM 73.0 °F 55.0 °F 53% 30.10 in 10.0 mi Variable 5.8 mph - N/A   Mostly Cloudy
3:53 PM 72.0 °F 52.0 °F 49% 30.09 in 10.0 mi Calm Calm - N/A   Mostly Cloudy
4:53 PM 75.0 °F 54.0 °F 48% 30.09 in 10.0 mi Variable 5.8 mph - N/A   Overcast
5:53 PM 73.9 °F 54.0 °F 50% 30.10 in 10.0 mi NNE 6.9 mph - N/A   Scattered Clouds
6:53 PM 72.0 °F 53.1 °F 51% 30.11 in 10.0 mi WNW 5.8 mph - N/A   Overcast
7:53 PM 71.1 °F 55.0 °F 57% 30.13 in 10.0 mi NNE 3.5 mph - N/A   Clear
8:53 PM 64.9 °F 57.9 °F 78% 30.14 in 10.0 mi Calm Calm - N/A   Clear
9:53 PM 61.0 °F 57.0 °F 87% 30.16 in 10.0 mi Calm Calm - N/A   Clear
10:53 PM 60.1 °F 57.0 °F 90% 30.17 in 10.0 mi Calm Calm - N/A   Scattered Clouds
11:53 PM 57.9 °F 55.9 °F 93% 30.18 in 10.0 mi Calm Calm - N/A   Clear